Location: Katowice
(50.2670°N, 19.0170°E)
Time: 04:15:33
(UTC+01:00)

X-37B - Visible Passes

Search period start: 10 December 2022 00:00
Search period end: 20 December 2022 00:00
Orbit: 277 x 277 km, 45.0° (Epoch: 01 November)

Date Brightness Start Highest point End Pass type
(mag) Time Alt. Az. Time Alt. Az. Time Alt. Az.
10 Dec 2.6 17:02:25 10° S 17:03:36 13° SSE 17:04:40 10° SE visible
11 Dec 2.3 17:02:26 10° SSW 17:04:07 16° SSE 17:05:18 13° SE visible
12 Dec 2.1 17:02:44 10° SW 17:04:39 20° S 17:05:57 14° SE visible
13 Dec 1.9 17:03:11 10° SW 17:05:12 23° S 17:06:37 14° SE visible
14 Dec 1.9 17:03:43 10° WSW 17:05:47 23° S 17:07:19 14° SE visible
15 Dec 2.1 17:04:19 10° WSW 17:06:20 22° S 17:08:06 12° SE visible
16 Dec 2.4 17:05:00 10° WSW 17:06:54 20° S 17:08:48 10° SE visible
17 Dec 2.8 17:05:48 10° WSW 17:07:26 16° SSW 17:09:04 10° SSE visible
18 Dec 3.1 17:06:51 10° SW 17:07:57 12° SSW 17:09:02 10° S visible
